User: anonymous   Login
Location: Unspecified
(0.0000°N, 0.0000°E)
Time: 06:52:42
(UTC+00:00)
Language:

ONEWEB-0271 - Orbit

View from above orbital plane
View from above orbital plane
View from above satellite
View from above satellite

Ground track
Ground track

The orbit is defined by the following mean orbital elements,

1 48989U          26145.52374726 +.00000000 +00000-0 +14702-3 0 00002
2 48989  87.9105 233.2727 0001788  95.9296 264.2039 13.16592992    03
Epoch (UTC): 25 May 2026 12:34:11
Eccentricity: 0.0001788
inclination: 87.9105°
perigee height: 1196 km
apogee height: 1199 km
right ascension of ascending node: 233.2727°
argument of perigee: 95.9296°
revolutions per day: 13.16592992
mean anomaly at epoch: 264.2039°

The dashed part of the orbit path shows where the satellite is in the earth's shadow,  

DLR